Weather History for Crestview, FL

Change the Weather History Date:

Thursday, December 20, 2012

  Actual Average Record
Temperature  
Mean Temperature 60 °F -  
Max Temperature 73 °F 60 °F 80 °F (1992)
Min Temperature 46 °F 39 °F 18 °F (1981)
Degree Days  
Heating Degree Days 6    
Growing Degree Days 10 (Base 50)    
Moisture  
Dew Point 59 °F    
Average Humidity 81    
Maximum Humidity 94    
Minimum Humidity 31    
Precipitation  
Precipitation 0.74 in - - ()
Sea Level Pressure  
Sea Level Pressure 29.90 in    
Wind  
Wind Speed 10 mph (SW)    
Max Wind Speed 23 mph    
Max Gust Speed 32 mph    
Visibility 6 miles    
Events Fog , Rain , Thunderstorm    
Averages and records for this station are not official NWS values.
T = Trace of Precipitation, MM = Missing Value Source: NWS Daily Summary

Daily Weather History Graph

Daily Weather History Graph

Search for Another Location

Airport:

Trip Planner

Search our weather history database for the weather conditions in past years. The results will help you decide how hot, cold, wet, or windy it might be!

Date:

Astronomy

Dec. 20, 2012 Rise Set
Actual Time 6:39 AM CST 4:48 PM CST
Civil Twilight 6:12 AM CST 5:15 PM CST
Nautical Twilight 5:42 AM CST 5:45 PM CST
Astronomical Twilight 5:13 AM CST 6:14 PM CST
Moon 11:47 AM CST (12/20) No Moon Set
Length of Visible Light 11h 02m
Length of Day
10h 09m
First Quarter, 55% of the Moon is Illuminated
Dec 20
First Quarter
Dec 28
Full
Jan 4
Last Quarter
Jan 11
New
Jan 18
First Quarter

Hourly Weather History & Observations

Time (CST) Temp. Dew Point Humidity Pressure Visibility Wind Dir Wind Speed Gust Speed Precip Events Conditions
12:04 AM 57.2 °F 55.4 °F 94% 30.00 in 10.0 mi East 5.8 mph - N/A   Mostly Cloudy
12:53 AM 59.0 °F 55.9 °F 90% 29.99 in 10.0 mi East 5.8 mph - N/A   Overcast
1:48 AM 60.8 °F 57.2 °F 88% 29.99 in 10.0 mi ESE 4.6 mph - N/A   Overcast
1:53 AM 60.1 °F 57.0 °F 90% 29.98 in 10.0 mi ESE 4.6 mph - N/A   Overcast
2:41 AM 60.8 °F 57.2 °F 88% 29.97 in 10.0 mi ESE 5.8 mph - N/A   Overcast
2:53 AM 61.0 °F 57.9 °F 90% 29.96 in 10.0 mi SE 6.9 mph - N/A   Overcast
3:10 AM 60.8 °F 57.2 °F 88% 29.96 in 10.0 mi ESE 3.5 mph - 0.00 in   Overcast
3:53 AM 62.1 °F 57.9 °F 86% 29.94 in 10.0 mi Variable 4.6 mph - 0.00 in   Overcast
4:53 AM 63.0 °F 61.0 °F 93% 29.94 in 4.0 mi SSW 6.9 mph - 0.02 in Rain Rain
5:53 AM 64.9 °F 63.0 °F 93% 29.93 in 6.0 mi SSE 6.9 mph - 0.00 in   Overcast
6:53 AM 68.0 °F 66.0 °F 93% 29.93 in 6.0 mi SSW 9.2 mph - N/A   Overcast
7:53 AM 71.1 °F 66.9 °F 87% 29.91 in 8.0 mi South 11.5 mph 20.7 mph N/A   Overcast
8:37 AM 71.6 °F 68.0 °F 88% 29.90 in 9.0 mi South 13.8 mph 26.5 mph N/A   Overcast
8:44 AM 71.6 °F 68.0 °F 88% 29.89 in 9.0 mi South 17.3 mph 26.5 mph N/A   Overcast
8:53 AM 72.0 °F 68.0 °F 87% 29.88 in 9.0 mi South 11.5 mph 21.9 mph 0.00 in Rain Light Rain
9:16 AM 71.6 °F 68.0 °F 88% 29.88 in 8.0 mi South 15.0 mph 24.2 mph 0.00 in Rain Light Rain
9:43 AM 71.6 °F 68.0 °F 88% 29.87 in 4.0 mi South 17.3 mph 26.5 mph 0.01 in Rain Light Rain
9:53 AM 72.0 °F 68.0 °F 87% 29.87 in 3.0 mi South 15.0 mph 32.2 mph 0.03 in Rain Rain
10:00 AM 71.6 °F 68.0 °F 88% 29.86 in 1.8 mi South 12.7 mph 24.2 mph 0.04 in Rain Heavy Rain
10:16 AM 71.6 °F 69.8 °F 94% 29.84 in 3.0 mi South 16.1 mph 29.9 mph 0.11 in Rain Rain
10:23 AM 71.6 °F 69.8 °F 94% 29.85 in 2.0 mi South 23.0 mph 32.2 mph 0.14 in Rain Heavy Rain
10:34 AM 71.6 °F 69.8 °F 94% 29.85 in 3.0 mi West 10.4 mph 21.9 mph 0.16 in Rain Light Rain
10:39 AM 71.6 °F 66.2 °F 83% 29.83 in 2.0 mi West 12.7 mph 21.9 mph 0.18 in Rain Heavy Rain
10:42 AM 71.6 °F 66.2 °F 83% 29.83 in 2.0 mi WSW 12.7 mph 21.9 mph 0.18 in Rain , Thunderstorm Rain
10:49 AM 71.6 °F 69.8 °F 94% 29.83 in 2.0 mi SW 16.1 mph 26.5 mph 0.21 in Rain , Thunderstorm Heavy Rain
10:51 AM 71.6 °F 69.8 °F 94% 29.83 in 1.5 mi SW 15.0 mph 26.5 mph 0.25 in Rain , Thunderstorm Heavy Rain
10:53 AM 72.0 °F 69.1 °F 91% 29.83 in 1.0 mi WSW 15.0 mph 26.5 mph 0.29 in Rain , Thunderstorm Heavy Rain
10:56 AM 71.6 °F 69.8 °F 94% 29.84 in 0.8 mi West 15.0 mph 24.2 mph 0.07 in Rain , Thunderstorm Heavy Rain
10:59 AM 71.6 °F 69.8 °F 94% 29.84 in 0.5 mi SW 17.3 mph 24.2 mph 0.12 in Fog , Rain Heavy Rain
11:06 AM 71.6 °F 69.8 °F 94% 29.82 in 0.8 mi SW 12.7 mph 24.2 mph 0.23 in Rain Heavy Rain
11:10 AM 71.6 °F 69.8 °F 94% 29.83 in 1.2 mi SW 21.9 mph 27.6 mph 0.24 in Rain Light Rain
11:17 AM 71.6 °F 69.8 °F 94% 29.83 in 2.5 mi SW 18.4 mph 27.6 mph 0.26 in Rain Rain
11:27 AM 73.4 °F 69.8 °F 88% 29.82 in 6.0 mi SSW 13.8 mph 25.3 mph 0.26 in Rain Light Rain
11:34 AM 73.4 °F 69.8 °F 88% 29.82 in 10.0 mi SW 16.1 mph 23.0 mph 0.26 in Rain Light Rain
11:49 AM 73.4 °F 69.8 °F 88% 29.81 in 10.0 mi SW 12.7 mph 26.5 mph 0.26 in   Overcast
11:53 AM 73.0 °F 69.1 °F 87% 29.81 in 10.0 mi SSW 10.4 mph 19.6 mph 0.26 in   Overcast
12:17 PM 71.6 °F 68.0 °F 88% 29.83 in 1.8 mi WNW 19.6 mph 25.3 mph 0.06 in Rain Rain
12:22 PM 68.0 °F 64.4 °F 88% 29.84 in 0.8 mi West 18.4 mph 28.8 mph 0.13 in Rain Heavy Rain
12:27 PM 64.4 °F 62.6 °F 94% 29.83 in 1.0 mi WSW 12.7 mph 28.8 mph 0.14 in Rain Heavy Rain
12:30 PM 64.4 °F 60.8 °F 88% 29.83 in 2.0 mi WSW 11.5 mph 26.5 mph 0.14 in Rain Light Rain
12:38 PM 64.4 °F 60.8 °F 88% 29.83 in 10.0 mi West 8.1 mph - 0.14 in   Mostly Cloudy
12:40 PM 64.4 °F 60.8 °F 88% 29.82 in 10.0 mi West 9.2 mph - 0.14 in   Mostly Cloudy
12:53 PM 64.9 °F 60.1 °F 84% 29.82 in 10.0 mi West 6.9 mph - 0.14 in   Partly Cloudy
1:53 PM 66.9 °F 57.0 °F 70% 29.82 in 10.0 mi West 11.5 mph - N/A   Clear
2:53 PM 66.9 °F 45.0 °F 45% 29.84 in 10.0 mi West 11.5 mph - N/A   Clear
3:53 PM 64.0 °F 35.1 °F 34% 29.88 in 10.0 mi WNW 19.6 mph 25.3 mph N/A   Clear
4:53 PM 61.0 °F 30.0 °F 31% 29.91 in 10.0 mi West 15.0 mph - N/A   Clear
5:53 PM 57.9 °F 33.1 °F 39% 29.97 in 10.0 mi WNW 17.3 mph 27.6 mph N/A   Clear
6:53 PM 54.0 °F 32.0 °F 43% 30.03 in 10.0 mi NW 13.8 mph 24.2 mph N/A   Clear
7:53 PM 52.0 °F 30.9 °F 45% 30.08 in 10.0 mi NW 9.2 mph - N/A   Clear
8:53 PM 50.0 °F 30.9 °F 48% 30.12 in 10.0 mi NW 12.7 mph 21.9 mph N/A   Clear
9:53 PM 48.9 °F 28.9 °F 46% 30.15 in 10.0 mi NW 12.7 mph 23.0 mph N/A   Clear
10:53 PM 46.9 °F 30.0 °F 52% 30.16 in 10.0 mi WNW 12.7 mph - N/A   Clear
11:53 PM 46.9 °F 28.0 °F 48% 30.17 in 10.0 mi NW 13.8 mph 21.9 mph N/A   Clear